GW3861 Weather Reports


time (UTC)temp
C
wind
direction
speed
KPH
gust
KPH
rain 1hr
cm
rain 24hr
cm
rain mn
cm
humidity
%
barometer
mb
20260906030057 27 0 0.0 4.8 0.00 0.00 0.00 69 1012.0
20260906024559 27 96 0.0 3.2 0.00 0.00 0.00 67 1011.8
20260906023103 27 0 0.0 3.2 0.00 0.00 0.00 66 1011.4
20260906021554 28 271 0.0 3.2 0.00 0.00 0.00 63 1011.6
20260906020052 28 58 1.6 6.4 0.00 0.00 0.00 65 1011.4
20260906014548 27 0 0.0 0.0 0.00 0.00 0.00 64 1010.6
20260906013102 28 0 0.0 1.6 0.00 0.00 0.00 63 1010.9
20260906011555 28 26 0.0 3.2 0.00 0.00 0.00 62 1011.2
20260906010056 28 0 0.0 3.2 0.00 0.00 0.00 62 1010.8
20260906004555 29 355 0.0 3.2 0.00 0.00 0.00 60 1010.9
20260906003055 30 53 0.0 4.8 0.00 0.00 0.00 57 1011.2
20260906001552 31 193 0.0 17.7 0.00 0.00 0.00 57 1011.2
20260906000049 32 76 4.8 19.3 0.00 0.00 0.00 57 1011.1
20260905234548 34 0 0.0 1.6 0.00 0.00 0.00 53 1010.7
20260905233100 34 326 0.0 3.2 0.00 0.00 0.00 51 1010.4
20260905231552 35 326 0.0 4.8 0.00 0.00 0.00 48 1010.3
20260905230105 35 271 3.2 6.4 0.00 0.00 0.00 48 1010.2
20260905224615 35 244 1.6 4.8 0.00 0.00 0.00 46 1010.2
20260905223102 36 309 3.2 9.7 0.00 0.00 0.00 45 1010.5
20260905221549 36 346 3.2 9.7 0.00 0.00 0.00 43 1010.3
20260905220059 36 248 6.4 9.7 0.00 0.00 0.00 43 1010.3
20260905214555 36 259 6.4 12.9 0.00 0.00 0.00 43 1010.3
20260905213105 37 274 3.2 9.7 0.00 0.00 0.00 42 1010.3
20260905211557 36 252 6.4 14.5 0.00 0.00 0.00 44 1010.5
20260905210104 36 239 1.6 12.9 0.00 0.00 0.00 44 1010.6
20260905204552 37 287 4.8 14.5 0.00 0.00 0.00 46 1010.8
20260905203102 36 258 4.8 14.5 0.00 0.00 0.00 45 1011.1
20260905201555 36 333 1.6 6.4 0.00 0.00 0.00 48 1011.2
20260905200055 37 281 4.8 12.9 0.00 0.00 0.00 48 1011.5
20260905194552 36 272 1.6 11.3 0.00 0.00 0.00 46 1011.9
20260905193046 36 279 3.2 9.7 0.00 0.00 0.00 46 1011.8
20260905191602 36 307 3.2 12.9 0.00 0.00 0.00 47 1012.1
20260905184600 35 132 3.2 12.9 0.00 0.00 0.00 50 1012.4
20260905183048 35 217 3.2 11.3 0.00 0.00 0.00 50 1012.9
20260905181556 35 258 4.8 11.3 0.00 0.00 0.00 50 1013.1
20260905180103 35 332 3.2 9.7 0.00 0.00 0.00 54 1013.2
20260905174549 34 248 3.2 14.5 0.00 0.00 0.00 56 1013.5
20260905173114 35 317 1.6 6.4 0.00 0.00 0.00 55 1013.5
20260905171554 34 298 1.6 6.4 0.00 0.00 0.00 56 1013.6
20260905170110 33 0 1.6 6.4 0.00 0.00 0.00 61 1013.8
20260905164553 33 51 1.6 6.4 0.00 0.00 0.00 60 1013.9
20260905163103 33 319 1.6 4.8 0.00 0.00 0.00 60 1014.1
20260905161606 32 322 1.6 6.4 0.00 0.00 0.00 62 1014.4
20260905160053 32 302 1.6 6.4 0.00 0.00 0.00 66 1014.6
20260905154610 31 290 1.6 4.8 0.00 0.00 0.00 68 1014.6
20260905153057 30 298 1.6 6.4 0.00 0.00 0.00 73 1014.8
20260905151555 29 0 0.0 3.2 0.00 0.00 0.00 76 1014.7
20260905150052 28 261 1.6 3.2 0.00 0.00 0.00 79 1014.8
20260905144547 27 308 4.8 11.3 0.00 0.00 0.00 77 1014.9
20260905143100 27 246 0.0 4.8 0.00 0.00 0.00 79 1014.9
20260905141554 27 0 0.0 3.2 0.00 0.00 0.00 81 1014.9
20260905140054 26 0 0.0 3.2 0.00 0.00 0.00 83 1014.9
20260905134552 26 109 0.0 3.2 0.00 0.00 0.00 83 1014.8
20260905133102 26 0 0.0 1.6 0.00 0.00 0.00 84 1015.0
20260905131554 26 0 0.0 0.0 0.00 0.00 0.00 85 1015.1
20260905130055 26 0 0.0 3.2 0.00 0.00 0.00 85 1014.9
20260905124555 26 0 0.0 1.6 0.00 0.00 0.00 86 1015.0
20260905123107 25 0 0.0 0.0 0.00 0.00 0.00 88 1015.0
20260905121556 24 0 0.0 0.0 0.00 0.00 0.00 91 1014.7
20260905120058 23 0 0.0 1.6 0.00 0.00 0.00 92 1014.6
20260905114558 23 0 0.0 1.6 0.00 0.00 0.00 93 1014.6
20260905113059 23 0 0.0 1.6 0.00 0.00 0.00 93 1014.5
20260905111555 23 0 0.0 0.0 0.00 0.00 0.00 93 1014.0
20260905110054 23 0 0.0 0.0 0.00 0.00 0.00 93 1013.8
20260905104553 23 0 0.0 1.6 0.00 0.00 0.00 92 1013.5
20260905103101 23 0 0.0 0.0 0.00 0.00 0.00 92 1013.6
20260905101605 23 0 0.0 0.0 0.00 0.00 0.00 92 1013.6
20260905100120 23 0 0.0 0.0 0.00 0.00 0.00 92 1013.6
20260905094552 23 0 0.0 1.6 0.00 0.00 0.00 91 1013.5
20260905093048 23 0 0.0 0.0 0.00 0.00 0.00 90 1013.3
20260905091601 23 0 0.0 1.6 0.00 0.00 0.00 90 1013.2
20260905090056 23 0 0.0 0.0 0.00 0.00 0.00 90 1013.2
20260905084553 23 0 0.0 1.6 0.00 0.00 0.00 90 1013.1
20260905083106 24 0 0.0 0.0 0.00 0.00 0.00 89 1013.3
20260905081554 24 0 0.0 0.0 0.00 0.00 0.00 89 1013.2
20260905080055 24 0 0.0 0.0 0.00 0.00 0.00 88 1013.4
20260905074553 24 0 0.0 3.2 0.00 0.00 0.00 89 1013.4
20260905073048 24 0 0.0 1.6 0.00 0.00 0.00 89 1013.4
20260905071557 24 0 0.0 1.6 0.00 0.00 0.00 89 1013.7
20260905070059 24 0 0.0 0.0 0.00 0.00 0.00 89 1013.7
20260905064611 24 0 0.0 1.6 0.00 0.00 0.00 88 1013.8
20260905063054 24 0 0.0 0.0 0.00 0.00 0.00 87 1013.8
20260905061547 25 0 0.0 1.6 0.00 0.00 0.00 86 1013.8
20260905060054 25 0 0.0 0.0 0.00 0.00 0.00 85 1013.8
20260905054653 25 0 0.0 1.6 0.00 0.00 0.00 85 1013.7
20260905053054 25 0 0.0 3.2 0.00 0.00 0.00 85 1013.6
20260905051550 25 0 0.0 1.6 0.00 0.00 0.00 84 1013.6
20260905050048 25 0 0.0 1.6 0.00 0.00 0.00 83 1013.5
20260905044606 26 0 0.0 1.6 0.00 0.00 0.00 82 1013.5
20260905043101 26 60 1.6 3.2 0.00 0.00 0.00 83 1013.7
20260905041551 26 79 0.0 3.2 0.00 0.00 0.00 81 1013.7
20260905040107 26 0 0.0 1.6 0.00 0.00 0.00 81 1013.8
20260905034602 26 0 0.0 1.6 0.00 0.00 0.00 80 1014.0
20260905033049 27 0 0.0 1.6 0.00 0.00 0.00 78 1014.1
20260905031556 27 0 0.0 1.6 0.00 0.00 0.00 76 1014.1